Content
SEND FEEDBACK

Daily
Averages
Monthly
Summary
United States of America

ASHEVILLE, NORTH CAROLINA


Home > North America > United States > North Carolina
Elevation: 2240 feet     Latitude: 35 36N     Longitude: 082 32W

WEATHER
 
SELECT A DAY
Number of Records: 225,295;   Date Range: 1/1/95 - 7/7/14
 
SHARE

PRINT THIS DATA

[ ← Previous Day ]
WEATHER ALMANAC - JUNE 29, 2013
[ Next Day → ]
[ °C ]   °F
We're sorry. There is no daily almanac available for Asheville, North Carolina on June 29, 2013.
WEATHER BY HOUR - JUNE 29, 2013
[ °C ]   °F
Local TimeTemperatureDewpointHumidityBarometerVisibilityWind DirectionWind SpeedGust SpeedPrecipitationEventsConditions
1:54 AM66.9 °F64.0 °F90 %29.66 in10.0 miNorth (360°)5.8 mphClear
2:31 AM66.2 °F64.4 °F94 %29.73 in10.0 miCalmPartly Cloudy
2:54 AM66.0 °F63.0 °F90 %29.65 in10.0 miNorth (350°)4.6 mphPartly Cloudy
3:54 AM63.0 °F62.1 °F97 %29.65 in8.0 miWest (260°)3.5 mphClear
4:21 AM62.6 °F62.6 °F100 %29.74 in7.0 miCalmPartly Cloudy
4:54 AM63.0 °F62.1 °F97 %29.66 in6.0 miCalmClear
5:04 AM62.6 °F62.6 °F100 %29.75 in6.0 miCalmScattered Clouds
5:13 AM62.6 °F62.6 °F100 %29.75 in7.0 miCalmMostly Cloudy
5:32 AM64.4 °F62.6 °F94 %29.75 in4.0 miCalmOvercast
5:46 AM64.4 °F62.6 °F94 %29.76 in1.8 miNNW (340°)3.5 mphOvercast
5:54 AM64.0 °F63.0 °F96 %29.68 in1.5 miNNW (340°)5.8 mphOvercast
5:59 AM62.6 °F62.6 °F100 %29.76 in0.8 miNNW (330°)4.6 mphOvercast
6:34 AM62.6 °F62.6 °F100 %29.77 in0.2 miCalmFogFog
6:54 AM63.0 °F63.0 °F100 %29.69 in0.2 miNNW (330°)3.5 mphFogFog
7:09 AM62.6 °F62.6 °F100 %29.77 in0.8 miNNW (330°)5.8 mphMist
7:17 AM62.6 °F62.6 °F100 %29.77 in1.2 miNNW (330°)6.9 mphOvercast
7:29 AM62.6 °F62.6 °F100 %29.78 in2.0 miNorth (360°)3.5 mphOvercast
7:37 AM62.6 °F62.6 °F100 %29.78 in5.0 miWNW (300°)3.5 mphOvercast
7:54 AM63.0 °F63.0 °F100 %29.71 in6.0 miWSW (240°)3.5 mphMostly Cloudy
8:42 AM66.2 °F62.6 °F88 %29.78 in9.0 miWSW (240°)3.5 mphScattered Clouds
8:54 AM66.9 °F64.0 °F90 %29.71 in9.0 miWSW (240°)4.6 mphPartly Cloudy
9:54 AM69.1 °F64.0 °F84 %29.70 in10.0 miSouth (170°)6.9 mphMostly Cloudy
10:54 AM73.0 °F64.0 °F73 %29.70 in10.0 miCalmMostly Cloudy
11:54 AM75.9 °F64.0 °F67 %29.69 in10.0 miVariable4.6 mphPartly Cloudy
12:54 PM78.1 °F62.1 °F58 %29.69 in10.0 miCalmClear
1:54 PM79.0 °F60.1 °F52 %29.68 in10.0 miVariable3.5 mphMostly Cloudy
2:54 PM80.1 °F59.0 °F48 %29.67 in10.0 miNNW (340°)10.4 mph0.01 inScattered Clouds
3:54 PM82.0 °F59.0 °F45 %29.66 in10.0 miNNW (340°)11.5 mphPartly Cloudy
4:54 PM82.0 °F57.9 °F44 %29.66 in10.0 miNNW (330°)11.5 mphClear
5:54 PM79.0 °F57.9 °F48 %29.66 in10.0 miNW (320°)12.7 mphScattered Clouds
6:54 PM80.1 °F57.9 °F47 %29.66 in10.0 miNW (310°)4.6 mphPartly Cloudy
7:54 PM77.0 °F60.1 °F56 %29.68 in10.0 miNW (310°)4.6 mphScattered Clouds
8:54 PM73.0 °F57.9 °F59 %29.69 in10.0 miNNW (330°)5.8 mphPartly Cloudy
9:54 PM70.0 °F60.1 °F71 %29.70 in10.0 miCalmPartly Cloudy
10:54 PM66.0 °F62.1 °F87 %29.73 in10.0 miSSE (160°)4.6 mphClear
11:54 PM66.0 °F62.1 °F87 %29.72 in10.0 miCalmClear
Hourly data recorded from KAVL, located miles away from Asheville, North Carolina







STORIES FROM OUR PARTNERS